Weather History for Haines, AK

Change the Weather History Date:

Monday, November 28, 2011

  Actual Average Record
Temperature  
Mean Temperature 26 °F -  
Max Temperature 37 °F 32 °F 47 °F (1993)
Min Temperature 16 °F 24 °F -6 °F (1985)
Degree Days  
Heating Degree Days 38    
Moisture  
Dew Point 27 °F    
Average Humidity 92    
Maximum Humidity 100    
Minimum Humidity 86    
Precipitation  
Precipitation 0.82 in - - ()
Sea Level Pressure  
Sea Level Pressure 29.58 in    
Wind  
Wind Speed 10 mph (East)    
Max Wind Speed 17 mph    
Max Gust Speed 30 mph    
Visibility 6 miles    
Events Fog , Rain , Snow    
Averages and records for this station are not official NWS values.
T = Trace of Precipitation, MM = Missing Value Source: NWS Daily Summary

Daily Weather History Graph

Daily Weather History Graph

Search for Another Location

Airport:

Trip Planner

Search our weather history database for the weather conditions in past years. The results will help you decide how hot, cold, wet, or windy it might be!

Date:

Astronomy

Nov. 28, 2011 Rise Set
Actual Time 8:24 AM AKST 3:14 PM AKST
Civil Twilight 7:33 AM AKST 4:06 PM AKST
Nautical Twilight 6:40 AM AKST 4:58 PM AKST
Astronomical Twilight 5:51 AM AKST 5:47 PM AKST
Moon 11:28 AM AKST (11/28) 7:26 PM AKST (11/28)
Length of Visible Light 8h 32m
Length of Day
6h 49m
Waxing Crescent, 17% of the Moon is Illuminated
Nov 28
Waxing Crescent
Dec 2
First Quarter
Dec 10
Full
Dec 17
Last Quarter
Dec 24
New

Hourly Weather History & Observations

Time (AKST) Temp. Windchill Dew Point Humidity Pressure Visibility Wind Dir Wind Speed Gust Speed Precip Events Conditions
12:54 AM 16.0 °F 3.6 °F 12.9 °F 88% 29.58 in 0.2 mi WNW 10.4 mph - 0.12 in Fog , Snow Heavy Snow
1:54 AM 17.1 °F 3.0 °F 14.0 °F 88% 29.53 in 0.2 mi WNW 13.8 mph - 0.10 in Fog , Snow Heavy Snow
2:54 AM 19.0 °F 10.0 °F 16.0 °F 88% 29.50 in 0.2 mi NW 6.9 mph - 0.13 in Fog , Snow Heavy Snow
3:54 AM 18.0 °F 12.7 °F 16.0 °F 92% 29.46 in 0.2 mi Variable 3.5 mph - 0.12 in Fog , Snow Heavy Snow
4:15 AM 17.6 °F 5.0 °F 15.8 °F 93% 29.44 in 0.5 mi West 11.5 mph - 0.04 in Fog , Snow Snow
4:54 AM 18.0 °F 6.9 °F 16.0 °F 92% 29.46 in 0.5 mi NW 9.2 mph 18.4 mph 0.10 in Fog , Snow Snow
5:05 AM 17.6 °F 5.0 °F 17.6 °F 100% 29.45 in 0.2 mi West 11.5 mph - 0.03 in Fog , Snow Heavy Snow
5:20 AM 19.4 °F 10.4 °F 17.6 °F 93% 29.45 in 0.5 mi Variable 6.9 mph - 0.07 in Fog , Snow Snow
5:46 AM 19.4 °F 9.5 °F 17.6 °F 93% 29.46 in 0.2 mi WNW 8.1 mph - 0.14 in Fog , Snow Heavy Snow
5:54 AM 19.0 °F 10.0 °F 17.1 °F 92% 29.47 in 0.5 mi WNW 6.9 mph - 0.16 in Fog , Snow Snow
6:13 AM 19.4 °F 10.4 °F 17.6 °F 93% 29.47 in 1.2 mi West 6.9 mph - 0.02 in Snow Light Snow
6:33 AM 19.4 °F 7.2 °F 17.6 °F 93% 29.47 in 2.0 mi WNW 11.5 mph 17.3 mph 0.03 in Snow Light Snow
6:51 AM 19.4 °F 9.5 °F 17.6 °F 93% 29.48 in 2.5 mi NW 8.1 mph - 0.04 in Snow Light Snow
6:54 AM 19.9 °F 7.9 °F 18.0 °F 92% 29.48 in 3.0 mi West 11.5 mph - 0.04 in Snow Light Snow
7:20 AM 19.4 °F 7.9 °F 17.6 °F 93% 29.49 in 4.0 mi WNW 10.4 mph - 0.00 in Snow Light Snow
7:54 AM 33.1 °F 28.7 °F 30.9 °F 92% 29.50 in 2.5 mi Variable 4.6 mph 20.7 mph 0.00 in Snow Light Snow
8:06 AM 21.2 °F 10.9 °F 21.2 °F 100% 29.49 in 4.0 mi NW 9.2 mph 21.9 mph 0.00 in Snow Light Snow
8:54 AM 21.9 °F 13.4 °F 19.9 °F 92% 29.51 in 10.0 mi WNW 6.9 mph - 0.00 in   Overcast
9:54 AM 28.0 °F 19.3 °F 25.0 °F 88% 29.54 in 9.0 mi ESE 9.2 mph - 0.00 in   Overcast
10:54 AM 36.0 °F 26.0 °F 34.0 °F 93% 29.55 in 10.0 mi ESE 17.3 mph 28.8 mph 0.00 in   Overcast
11:54 AM 37.0 °F 27.7 °F 34.0 °F 89% 29.56 in 10.0 mi ESE 16.1 mph 25.3 mph 0.02 in Rain Light Rain
12:47 PM 35.6 °F 28.0 °F 35.6 °F 100% 29.55 in 9.0 mi East 10.4 mph 19.6 mph 0.01 in Rain Light Rain
12:54 PM 36.0 °F 28.0 °F 35.1 °F 97% 29.57 in 10.0 mi ESE 11.5 mph 18.4 mph 0.01 in   Overcast
1:13 PM 37.4 °F 28.5 °F 35.6 °F 93% 29.56 in 10.0 mi ESE 15.0 mph 29.9 mph 0.00 in   Overcast
1:54 PM 37.0 °F 29.3 °F 35.1 °F 93% 29.59 in 10.0 mi ESE 11.5 mph 20.7 mph 0.00 in   Overcast
2:54 PM 37.0 °F 29.8 °F 35.1 °F 93% 29.60 in 10.0 mi ESE 10.4 mph 17.3 mph 0.01 in Rain Light Rain
3:54 PM 37.0 °F 28.5 °F 34.0 °F 89% 29.62 in 10.0 mi East 13.8 mph 27.6 mph 0.00 in Rain Light Rain
4:09 PM 37.4 °F 27.8 °F 33.8 °F 87% 29.61 in 7.0 mi ESE 17.3 mph 28.8 mph 0.00 in Rain Light Rain
4:30 PM 35.6 °F 27.5 °F 33.8 °F 93% 29.61 in 10.0 mi ESE 11.5 mph 26.5 mph 0.00 in Rain Light Rain
4:54 PM 36.0 °F 27.5 °F 34.0 °F 93% 29.63 in 10.0 mi East 12.7 mph 21.9 mph 0.00 in Rain Light Rain
4:58 PM 35.6 °F 28.0 °F 33.8 °F 93% 29.63 in 10.0 mi ESE 10.4 mph 20.7 mph 0.00 in Rain Light Rain
5:12 PM 37.4 °F 29.3 °F 33.8 °F 87% 29.63 in 10.0 mi ESE 12.7 mph 24.2 mph 0.00 in Rain Light Rain
5:54 PM 37.0 °F 28.1 °F 34.0 °F 89% 29.65 in 10.0 mi East 15.0 mph 23.0 mph 0.01 in Rain Light Rain
6:46 PM 35.6 °F 27.5 °F 33.8 °F 93% 29.66 in 10.0 mi East 11.5 mph 28.8 mph 0.00 in Rain Light Rain
6:54 PM 37.0 °F 29.3 °F 35.1 °F 93% 29.67 in 10.0 mi East 11.5 mph 19.6 mph 0.00 in   Overcast
7:54 PM 37.0 °F 28.5 °F 35.1 °F 93% 29.70 in 10.0 mi East 13.8 mph 23.0 mph 0.00 in Rain Light Rain
8:23 PM 37.4 °F 29.3 °F 33.8 °F 87% 29.71 in 10.0 mi East 12.7 mph 19.6 mph 0.00 in   Overcast
8:54 PM 37.0 °F 28.9 °F 34.0 °F 89% 29.74 in 10.0 mi ESE 12.7 mph 26.5 mph 0.00 in Rain Light Rain
9:33 PM 37.4 °F 31.4 °F 35.6 °F 93% 29.75 in 10.0 mi ESE 8.1 mph 21.9 mph 0.00 in Rain Light Rain
9:54 PM 37.0 °F 29.3 °F 34.0 °F 89% 29.77 in 10.0 mi ESE 11.5 mph 23.0 mph 0.00 in   Mostly Cloudy
10:54 PM 36.0 °F 29.0 °F 34.0 °F 93% 29.80 in 10.0 mi East 9.2 mph 18.4 mph N/A   Overcast
11:54 PM 37.0 °F 28.9 °F 33.1 °F 86% 29.83 in 10.0 mi East 12.7 mph 19.6 mph 0.00 in Rain Light Rain